EA1BFZ-13 Weather Reports


time (UTC)temp
C
wind
direction
speed
KPH
gust
KPH
rain 1hr
cm
rain 24hr
cm
rain mn
cm
humidity
%
barometer
mb
20260507080113 12 0 6.4 4.8 0.00 0.00 0.00 1012.0
20260507075113 10 0 1.6 4.8 0.00 0.00 0.00 1013.0
20260507074113 10 0 3.2 3.2 0.00 0.00 0.00 1012.0
20260507073113 10 0 8.0 4.8 0.00 0.00 0.00 1012.0
20260507072113 9 0 1.6 3.2 0.00 0.00 0.00 1013.0
20260507071113 8 0 4.8 4.8 0.00 0.00 0.00 1013.0
20260507070113 8 0 3.2 1.6 0.00 0.00 0.00 1013.0
20260507065113 7 0 0.0 1.6 0.00 0.00 0.00 1013.0
20260507064113 7 0 3.2 3.2 0.00 0.00 0.00 1013.0
20260507063113 7 0 4.8 4.8 0.00 0.00 0.00 1013.0
20260507062113 7 0 1.6 3.2 0.00 0.00 0.00 1012.0
20260507061113 7 0 0.0 3.2 0.00 0.00 0.00 1013.0
20260507060113 6 0 0.0 0.0 0.00 0.00 0.00 1013.0
20260507055113 6 0 0.0 0.0 0.00 0.00 0.00 1013.0
20260507054113 6 0 0.0 1.6 0.00 0.00 0.00 1013.0
20260507053113 5 0 0.0 1.6 0.00 0.00 0.00 1013.0
20260507052113 5 0 0.0 3.2 0.00 0.00 0.00 1013.0
20260507051113 5 0 0.0 1.6 0.00 0.00 0.00 1013.0
20260507050113 5 0 0.0 1.6 0.00 0.00 0.00 1013.0
20260507045113 5 0 0.0 0.0 0.00 0.00 0.00 1013.0
20260507044113 4 0 0.0 0.0 0.00 0.00 0.00 1013.0
20260507043113 4 0 0.0 1.6 0.00 0.00 0.00 1013.0
20260507042113 4 0 0.0 1.6 0.00 0.00 0.00 1013.0
20260507041114 4 0 0.0 1.6 0.00 0.00 0.00 1013.0
20260507040113 4 0 0.0 0.0 0.00 0.00 0.00 1013.0
20260507035113 4 0 0.0 1.6 0.00 0.00 0.00 1013.0
20260507034113 3 0 0.0 0.0 0.00 0.00 0.00 1013.0
20260507033113 3 0 0.0 3.2 0.00 0.00 0.00 1013.0
20260507032113 3 0 3.2 1.6 0.00 0.00 0.00 1013.0
20260507031113 3 0 0.0 3.2 0.00 0.00 0.00 1013.0
20260507030113 4 0 0.0 1.6 0.00 0.00 0.00 1013.0
20260507025113 3 0 0.0 3.2 0.00 0.00 0.00 1013.0
20260507024113 4 0 0.0 1.6 0.00 0.00 0.00 1013.0
20260507023113 4 0 0.0 0.0 0.00 0.00 0.00 1013.0
20260507022113 4 0 0.0 0.0 0.00 0.00 0.00 1013.0
20260507020113 4 0 0.0 1.6 0.00 0.00 0.00 1013.0
20260507015113 5 0 0.0 3.2 0.00 0.00 0.00 1013.0
20260507014113 5 0 0.0 3.2 0.00 0.00 0.00 1013.0
20260507013113 5 0 3.2 3.2 0.00 0.00 0.00 1013.0
20260507012113 5 0 0.0 1.6 0.00 0.00 0.00 1013.0
20260507011113 5 0 0.0 0.0 0.00 0.00 0.00 1013.0
20260507010113 5 0 0.0 1.6 0.00 0.00 0.00 1013.0
20260507005113 5 0 0.0 0.0 0.00 0.00 0.00 1013.0
20260507004113 5 0 0.0 0.0 0.00 0.00 0.00 1013.0
20260507003113 6 0 0.0 4.8 0.00 0.00 0.00 1013.0
20260507002113 6 0 1.6 3.2 0.00 0.00 0.00 1013.0
20260507001113 6 0 4.8 4.8 0.00 0.00 0.00 1013.0
20260507000113 6 0 3.2 3.2 0.00 0.00 0.00 1013.0
20260506235113 6 0 3.2 3.2 0.00 0.00 0.00 1013.0
20260506234113 6 0 3.2 3.2 0.00 0.00 0.00 1013.0
20260506233113 6 0 1.6 3.2 0.00 0.00 0.00 1013.0
20260506232113 6 0 3.2 4.8 0.00 0.00 0.00 1013.0
20260506231113 6 0 4.8 4.8 0.00 0.00 0.00 1013.0
20260506230113 6 0 3.2 3.2 0.00 0.00 0.00 1013.0
20260506225113 6 0 3.2 4.8 0.00 0.00 0.00 1013.0
20260506224113 6 0 3.2 4.8 0.00 0.00 0.00 1013.0
20260506223113 6 0 1.6 4.8 0.00 0.00 0.00 1013.0
20260506222113 6 0 4.8 6.4 0.00 0.00 0.00 1013.0
20260506221113 6 0 4.8 4.8 0.00 0.00 0.00 1013.0
20260506220113 6 0 6.4 4.8 0.00 0.00 0.00 1013.0
20260506215113 7 0 1.6 6.4 0.00 0.00 0.00 1013.0
20260506214113 7 0 4.8 4.8 0.00 0.00 0.00 1013.0
20260506213113 7 0 4.8 3.2 0.00 0.00 0.00 1013.0
20260506212113 7 0 8.0 6.4 0.00 0.00 0.00 1013.0
20260506211113 7 0 3.2 6.4 0.00 0.00 0.00 1013.0
20260506210113 7 0 4.8 6.4 0.00 0.00 0.00 1013.0
20260506205113 7 0 6.4 4.8 0.00 0.00 0.00 1013.0
20260506204113 7 0 0.0 3.2 0.00 0.00 0.00 1013.0
20260506203113 7 0 3.2 6.4 0.00 0.00 0.00 1013.0
20260506202113 8 0 4.8 6.4 0.00 0.00 0.00 1013.0
20260506201113 8 0 4.8 6.4 0.00 0.00 0.00 1013.0
20260506200113 8 0 6.4 6.4 0.00 0.00 0.00 1012.0
20260506195113 8 0 4.8 3.2 0.00 0.00 0.00 1012.0
20260506194113 8 0 8.0 6.4 0.00 0.00 0.00 1012.0
20260506193113 9 0 4.8 4.8 0.00 0.00 0.00 1012.0
20260506192113 9 0 1.6 6.4 0.00 0.00 0.00 1012.0
20260506191113 10 0 3.2 3.2 0.00 0.00 0.00 1012.0
20260506190113 10 0 8.0 6.4 0.00 0.00 0.00 1012.0
20260506184113 11 0 4.8 12.9 0.00 0.00 0.00 1011.0
20260506183113 11 0 8.0 11.3 0.00 0.00 0.00 1011.0
20260506181113 11 0 9.7 12.9 0.00 0.00 0.00 1011.0
20260506180113 11 0 3.2 8.0 0.00 0.00 0.00 1011.0
20260506175113 11 0 3.2 9.7 0.00 0.00 0.00 1011.0
20260506174113 12 0 8.0 6.4 0.00 0.00 0.00 1011.0
20260506173113 12 0 9.7 12.9 0.00 0.00 0.00 1011.0
20260506172113 13 0 8.0 14.5 0.00 0.00 0.00 1011.0
20260506171113 13 0 9.7 8.0 0.00 0.00 0.00 1011.0
20260506170113 13 0 11.3 11.3 0.00 0.00 0.00 1011.0
20260506165113 14 0 6.4 9.7 0.00 0.00 0.00 1011.0
20260506164113 14 0 8.0 3.2 0.00 0.00 0.00 1011.0
20260506163113 14 0 8.0 8.0 0.00 0.00 0.00 1011.0
20260506162113 15 0 6.4 6.4 0.00 0.00 0.00 1011.0
20260506161113 15 0 6.4 12.9 0.00 0.00 0.00 1011.0
20260506160113 16 0 6.4 9.7 0.00 0.00 0.00 1011.0
20260506155113 18 0 11.3 8.0 0.00 0.00 0.00 1010.0
20260506154113 21 0 4.8 3.2 0.00 0.00 0.00 1010.0
20260506153113 18 0 1.6 1.6 0.00 0.00 0.00 1010.0
20260506152113 18 0 0.0 3.2 0.00 0.00 0.00 1011.0
20260506151113 19 0 0.0 3.2 0.00 0.00 0.00 1010.0
20260506150113 18 0 0.0 3.2 0.00 0.00 0.00 1011.0
20260506145113 21 0 4.8 6.4 0.00 0.00 0.00 1011.0
20260506144113 23 0 0.0 0.0 0.00 0.00 0.00 1011.0
20260506142731 23 0 0.0 0.0 0.00 0.00 0.00 1010.0
20260506142333 23 0 0.0 0.0 0.00 0.00 0.00 1010.0
20260506141333 23 0 0.0 0.0 0.00 0.00 0.00 1010.0
20260506140333 23 0 0.0 0.0 0.00 0.00 0.00 1010.0
20260506135333 23 0 0.0 0.0 0.00 0.00 0.00 1010.0
20260506134333 23 0 0.0 0.0 0.00 0.00 0.00 1010.0
20260506133333 23 0 0.0 0.0 0.00 0.00 0.00 1011.0
20260506132333 23 0 0.0 0.0 0.00 0.00 0.00 1011.0
20260506131333 23 0 0.0 8.0 0.00 0.00 0.00 1011.0
20260506130333 23 0 0.0 0.0 0.00 0.00 0.00 1011.0
20260506125333 23 0 0.0 0.0 0.00 0.00 0.00 1011.0
20260506124333 23 0 0.0 0.0 0.00 0.00 0.00 1011.0
20260506123333 23 0 0.0 0.0 0.00 0.00 0.00 1011.0
20260506122333 23 0 0.0 0.0 0.00 0.00 0.00 1011.0
20260506121333 23 0 0.0 0.0 0.00 0.00 0.00 1011.0
20260506120333 23 0 0.0 0.0 0.00 0.00 0.00 1011.0
20260506115333 23 0 0.0 0.0 0.00 0.00 0.00 1011.0
20260506114333 22 0 0.0 0.0 0.00 0.00 0.00 1011.0
20260506113333 22 0 0.0 0.0 0.00 0.00 0.00 1011.0
20260506112333 22 0 0.0 14.5 0.00 0.00 0.00 1011.0
20260506111333 21 0 0.0 0.0 0.00 0.00 0.00 1012.0
20260506110333 21 0 0.0 0.0 0.00 0.00 0.00 1012.0
20260506105333 20 0 0.0 0.0 0.00 0.00 0.00 1012.0
20260506104333 20 0 0.0 0.0 0.00 0.00 0.00 1012.0
20260506103333 19 0 0.0 0.0 0.00 0.00 0.00 1012.0
20260506102333 18 0 0.0 0.0 0.00 0.00 0.00 1012.0